[[{"header":{"parameterUnit":"m.s-1","parameterCategory":2,"la1":30.2991,"la2":30.254,"lo1":-89.0895,"lo2":-89.0444,"dy":0.0017,"dx":0.0017,"nx":28,"ny":28,"refTime":"2025-08-28T21:00:00:Z","depth":"0","parameterNumber":2,"parameterNumberName":"U-component_of_CURRENTS"},"data":[0,0,0,0,0,0,0,0,0,0,0,0,0,0,0,0,0,0,0,0,0,0,0,0,0,0,0,0,0,0,0,0,0,0,0,0,0,0,0,0,0,0,0,0,0,0,0,0,0,0,0,0,0,0,0,0,0,0,0.1851,0.1851,0,0.1841,0.1841,0.1841,0.1826,0.1826,0.1826,0.1826,0.1803,0.1803,0.1802,0,0,0,0,0,0,0,0,0,0,0,0,0,0.1847,0.1848,0.1851,0.1851,0.1851,0.1841,0.1841,0.1841,0.1826,0.1826,0.1826,0.1826,0.1803,0.1803,0.1802,0,0,0,0,0,0,0,0,0,0,0,0,0,0.1843,0.1848,0.1851,0.1844,0.1843,0.1841,0.1841,0.1841,0.1826,0.1826,0.1826,0.1826,0.1804,0.1803,0.1802,0.1801,0,0,0.18,0.18,0,0,0,0,0,0,0,0,0.1843,0.1843,0.1845,0.1844,0.1844,0.1836,0.1832,0.1827,0.1826,0.1831,0.1826,0.1826,0.1814,0.1813,0.1809,0.18,0.1799,0.18,0.1799,0.1799,0.1799,0,0,0,0,0,0,0,0.1844,0.1843,0.1846,0.1845,0.1844,0.1838,0.1837,0.1831,0.1822,0.1831,0.183,0.1831,0.1813,0.181,0.1809,0.1799,0.18,0.1799,0.1799,0.1799,0.1841,0.1842,0,0,0,0,0,0,0.1849,0.1844,0.1846,0.1846,0.1845,0.1838,0.1837,0.1837,0.1823,0.1821,0.1831,0.1831,0.1811,0.1809,0.1808,0.1848,0.1799,0.1798,0.1798,0.1839,0.1841,0.1843,0,0,0,0,0,0,0.1849,0.1849,0.1846,0.1846,0.1845,0.1839,0.1839,0.1837,0.1839,0.1824,0.1821,0.1835,0.1811,0.1809,0.1819,0.1845,0.1798,0.1797,0.1838,0.184,0.1842,0.1901,0,0,0,0,0,0,0.1849,0.1849,0.185,0.1846,0.1845,0.1854,0.1839,0.1837,0.184,0.1839,0.1826,0.1823,0.1811,0.1821,0.1819,0.1843,0.1797,0.1836,0.1839,0.1841,0.1898,0.1906,0.1912,0,0,0,0,0,0.1848,0.1848,0.185,0.185,0.1847,0.1855,0.1854,0.1847,0.1841,0.1847,0.1845,0.1824,0.1838,0.1821,0.1819,0.1844,0.1834,0.1838,0.1841,0.1894,0.1904,0.1912,0,0,0,0,0,0,0.1842,0.1846,0.1848,0.1848,0.1857,0.1853,0.1854,0.1853,0.1855,0.1854,0.1838,0.1836,0.186,0.1844,0.1826,0.1867,0.1835,0.1838,0.1876,0.1885,0.1893,0.1897,0.1796,0,0,0,0,0,0.1844,0.1846,0.1854,0.1855,0.186,0.186,0.1861,0.1862,0.1863,0.1863,0.1859,0.1859,0.1871,0.1872,0.1876,0.189,0.19,0.1908,0.1915,0.1922,0.1925,0.1977,0.1989,0.1855,0.1855,0.1854,0,0,0.1842,0.1844,0.1845,0.1854,0.1857,0.1873,0.186,0.1868,0.1886,0.1861,0.1881,0.1885,0.1883,0.1908,0.1916,0.1896,0.1967,0.1926,0.1931,0.1932,0.1982,0.1995,0.2006,0.1857,0.1857,0.1856,0,0,0.1844,0.1843,0.1852,0.1863,0.1876,0.1881,0.1888,0.1897,0.1905,0.1926,0.1923,0.1945,0.1947,0.1962,0.1966,0.2017,0.2008,0.2017,0.2052,0.2102,0.2114,0.2124,0.2159,0.2172,0.2016,0.2016,0.2016,0,0.1846,0.1855,0.1856,0.1872,0.1884,0.1889,0.1909,0.1922,0.1935,0.1949,0.1941,0.1979,0.1978,0.2019,0.204,0.2034,0.2055,0.2016,0.2112,0.2123,0.2132,0.2165,0.2178,0.2019,0.2019,0.2019,0.2018,0,0.186,0.1871,0.1876,0.1902,0.1916,0.1932,0.1955,0.1972,0.1982,0.1998,0.2041,0.2052,0.2071,0.2084,0.2075,0.2143,0.2133,0.212,0.2089,0.2149,0.218,0.2193,0.2024,0.2023,0.2022,0.2021,0,0,0.1851,0.1882,0.1885,0.1899,0.1933,0.1943,0.1981,0.2016,0.2042,0.2068,0.2107,0.2143,0.2148,0.2155,0.2158,0.2202,0.229,0.219,0.2191,0.2223,0.2397,0.2379,0.2391,0.2295,0.2298,0.2299,0.2394,0,0.1864,0.1897,0.1912,0.1944,0.196,0.1983,0.2016,0.2049,0.2081,0.2121,0.2151,0.2189,0.2176,0.2193,0.2238,0.2276,0.2325,0.2265,0.2335,0.2337,0.2312,0.2406,0.2315,0.2391,0.2406,0.2408,0.241,0,0.187,0.1892,0.1926,0.196,0.197,0.1991,0.204,0.2072,0.2133,0.2164,0.2211,0.2231,0.2296,0.2279,0.238,0.2342,0.2377,0.2407,0.2411,0.2381,0.2343,0.2333,0.2414,0.2356,0.2429,0.2428,0.2426,0,0.185,0.1894,0.1919,0.1933,0.198,0.1996,0.2021,0.2079,0.2117,0.2193,0.2231,0.2301,0.2341,0.2403,0.2451,0.2427,0.2564,0.2533,0.2552,0.255,0.248,0.2468,0.251,0.262,0.262,0.262,0.262,0,0.1846,0.1858,0.1908,0.1918,0.1946,0.1981,0.2021,0.2063,0.2137,0.2185,0.2244,0.23,0.2378,0.2449,0.2488,0.2564,0.2594,0.2584,0.2587,0.2498,0.2487,0.2436,0.2405,0.2623,0.2623,0.2622,0.2621,0,0.1799,0.184,0.1861,0.1915,0.1932,0.1944,0.201,0.204,0.2119,0.2187,0.2213,0.2323,0.2417,0.2486,0.2597,0.261,0.2614,0.27,0.2583,0.2571,0.2519,0.2494,0.2443,0.2364,0.2742,0.2742,0.2742,0,0.1772,0.1783,0.1843,0.1854,0.1872,0.1906,0.193,0.2019,0.2062,0.2193,0.2222,0.2341,0.2413,0.257,0.263,0.2713,0.2624,0.2669,0.2608,0.253,0.2506,0.2387,0.2314,0.254,0.2538,0.2537,0.2536,0,0.1713,0.1739,0.1759,0.1792,0.1816,0.1844,0.1889,0.1928,0.2031,0.2099,0.2197,0.2271,0.2437,0.2495,0.2612,0.2646,0.2534,0.2648,0.2602,0.2394,0.223,0.215,0.2453,0.2526,0.2527,0.2528,0.2528,0.2529,0.1656,0.1657,0.1692,0.1709,0.174,0.1754,0.1752,0.1822,0.1881,0.1964,0.21,0.2185,0.2346,0.2504,0.2521,0.2512,0.2482,0.2453,0.2445,0.2341,0.2218,0.2499,0.255,0.2551,0.2552,0.2553,0.2553,0,0.1574,0.1587,0.1604,0.1623,0.1618,0.1662,0.17,0.1691,0.1722,0.1854,0.1936,0.2095,0.2186,0.2303,0.239,0.2327,0.2197,0.2263,0.2074,0.2024,0.2319,0.2262,0.2209,0.2209,0.2209,0.2209,0.2209,0.2209,0.1532,0.1516,0.1528,0.1491,0.1499,0.1464,0.1462,0.1479,0.1551,0.1638,0.1739,0.1858,0.2096,0.225,0.2234,0.2177,0.1994,0.1908,0.1894,0.2114,0.2129,0.2144,0.2085,0.1995,0.1994,0.1492,0.1488,0.1486]},{"header":{"parameterUnit":"m.s-1","parameterCategory":2,"la1":30.2991,"la2":30.254,"lo1":-89.0895,"lo2":-89.0444,"dy":0.0017,"dx":0.0017,"nx":28,"ny":28,"refTime":"2025-08-28T21:00:00:Z","depth":"0","parameterNumber":3,"parameterNumberName":"V-component_of_CURRENTS"},"data":[0,0,0,0,0,0,0,0,0,0,0,0,0,0,0,0,0,0,0,0,0,0,0,0,0,0,0,0,0,0,0,0,0,0,0,0,0,0,0,0,0,0,0,0,0,0,0,0,0,0,0,0,0,0,0,0,0,0,-0.0041,-0.0042,0,-0.0131,-0.0132,-0.0133,-0.019,-0.019,-0.019,-0.0191,-0.0312,-0.0315,-0.0318,0,0,0,0,0,0,0,0,0,0,0,0,0,0.0048,0.0046,-0.0041,-0.0042,-0.0043,-0.0131,-0.0132,-0.0133,-0.019,-0.019,-0.019,-0.0191,-0.0311,-0.0315,-0.0319,0,0,0,0,0,0,0,0,0,0,0,0,0,-0.0013,0.0046,-0.0041,-0.0081,-0.0085,-0.013,-0.0132,-0.0134,-0.019,-0.019,-0.019,-0.0191,-0.031,-0.0315,-0.0319,-0.0342,0,0,-0.0333,-0.0335,0,0,0,0,0,0,0,0,-0.0009,-0.0016,-0.0074,-0.0078,-0.0083,-0.0148,-0.0145,-0.0204,-0.019,-0.0152,-0.0191,-0.0191,-0.0259,-0.0268,-0.0286,-0.0347,-0.0353,-0.0334,-0.0336,-0.0338,-0.034,0,0,0,0,0,0,0,-0.0005,-0.0013,-0.0078,-0.0075,-0.008,-0.0105,-0.0114,-0.0157,-0.0204,-0.0155,-0.0159,-0.0166,-0.0262,-0.0281,-0.0289,-0.0355,-0.0333,-0.0337,-0.034,-0.0342,-0.0431,-0.0431,0,0,0,0,0,0,0.0011,-0.0009,-0.0075,-0.0081,-0.0044,-0.0106,-0.0116,-0.0128,-0.0204,-0.0215,-0.0166,-0.0169,-0.0273,-0.0284,-0.0294,-0.0311,-0.0338,-0.0343,-0.0345,-0.0432,-0.0431,-0.0431,0,0,0,0,0,0,0.0013,0.0006,-0.0072,-0.0045,-0.0057,-0.0107,-0.012,-0.013,-0.0148,-0.0211,-0.0223,-0.0174,-0.0274,-0.0287,-0.0328,-0.0316,-0.0345,-0.0349,-0.0432,-0.0431,-0.0431,-0.0354,0,0,0,0,0,0,0.0016,0.0007,0.0007,-0.0044,-0.0057,-0.0093,-0.012,-0.0131,-0.0151,-0.0156,-0.0222,-0.0234,-0.0275,-0.0321,-0.0333,-0.0323,-0.0352,-0.0432,-0.0432,-0.0431,-0.0357,-0.0351,-0.0346,0,0,0,0,0,0.002,0.0023,0.0008,0.0,-0.0057,-0.0093,-0.0102,-0.014,-0.0151,-0.0158,-0.0201,-0.0232,-0.0325,-0.0325,-0.0339,-0.033,-0.0433,-0.0432,-0.0431,-0.036,-0.0352,-0.0346,0,0,0,0,0,0,0.0059,0.0016,-0.0001,-0.0012,-0.0047,-0.0102,-0.0107,-0.0134,-0.0173,-0.0175,-0.0234,-0.0249,-0.0279,-0.0316,-0.0314,-0.0353,-0.0381,-0.0383,-0.0322,-0.0315,-0.031,-0.0279,-0.0356,0,0,0,0,0,0.0069,0.0062,0.0013,0.0005,-0.0007,-0.0055,-0.0073,-0.01,-0.0142,-0.0159,-0.0204,-0.0249,-0.0286,-0.0309,-0.035,-0.0375,-0.0389,-0.0377,-0.0371,-0.0366,-0.035,-0.0367,-0.0361,-0.0428,-0.0428,-0.0428,0,0,0.0082,0.0059,0.0053,0.0014,-0.0014,-0.0026,-0.0067,-0.0089,-0.0097,-0.0166,-0.0188,-0.0233,-0.0289,-0.0315,-0.0331,-0.0345,-0.0352,-0.0364,-0.036,-0.0347,-0.0365,-0.0358,-0.0353,-0.0427,-0.0427,-0.0427,0,0,0.0106,0.0084,0.0087,0.0064,0.0029,0.0,-0.0002,-0.0053,-0.0072,-0.0104,-0.0148,-0.0181,-0.0248,-0.0277,-0.0302,-0.0288,-0.0321,-0.0305,-0.0252,-0.0269,-0.0263,-0.0258,-0.0253,-0.0248,-0.0301,-0.0301,-0.0301,0,0.0122,0.0118,0.0082,0.0079,0.0071,0.0018,0.0022,-0.0007,-0.0064,-0.0069,-0.01,-0.0173,-0.0224,-0.0242,-0.024,-0.0273,-0.0283,-0.0273,-0.0259,-0.0255,-0.0251,-0.0247,-0.0243,-0.0297,-0.0298,-0.0298,-0.0298,0,0.0145,0.0144,0.0146,0.0129,0.0115,0.0108,0.007,0.0056,0.0027,-0.0002,-0.0029,-0.0097,-0.0136,-0.0159,-0.0201,-0.0197,-0.0211,-0.0249,-0.0272,-0.024,-0.0238,-0.0234,-0.0292,-0.0293,-0.0294,-0.0295,0,0,0.0173,0.0164,0.0165,0.0174,0.0143,0.0137,0.0134,0.0118,0.0129,0.007,0.0079,0.0008,-0.0024,-0.0054,-0.0107,-0.0125,-0.0112,-0.0171,-0.0174,-0.0154,-0.0129,-0.0138,-0.0136,-0.0151,-0.015,-0.015,-0.0132,0,0.0201,0.0219,0.0204,0.0227,0.0237,0.0205,0.0207,0.0189,0.0169,0.0164,0.0104,0.0082,0.0014,-0.0003,-0.003,-0.0094,-0.0103,-0.0112,-0.0172,-0.0173,-0.0177,-0.0132,-0.0136,-0.0122,-0.013,-0.0129,-0.0129,0,0.0229,0.024,0.0268,0.0287,0.0288,0.0292,0.0307,0.0303,0.0285,0.0271,0.0248,0.0195,0.0162,0.0093,0.0025,0.0022,-0.0039,-0.009,-0.0092,-0.0123,-0.0176,-0.016,-0.0116,-0.0231,-0.0124,-0.0125,-0.0125,0,0.0273,0.029,0.0319,0.0321,0.0325,0.0338,0.0342,0.0336,0.0356,0.0345,0.0356,0.0301,0.0277,0.0196,0.0085,0.0056,0.0015,-0.0042,-0.0099,-0.01,-0.0125,-0.013,-0.0191,-0.0079,-0.0079,-0.0079,-0.0079,0,0.0311,0.0337,0.0342,0.0357,0.0399,0.0386,0.0434,0.043,0.0446,0.0483,0.0415,0.0433,0.0299,0.0248,0.0138,0.0045,0.0057,-0.0067,-0.0093,-0.0098,-0.01,-0.0221,-0.0296,-0.0078,-0.0078,-0.0078,-0.0079,0,0.0353,0.0353,0.0393,0.0409,0.042,0.0451,0.0496,0.0533,0.0535,0.0585,0.0584,0.0545,0.0476,0.0349,0.0227,0.0124,-0.0042,-0.0016,-0.0,-0.0024,-0.0196,-0.0266,-0.0342,-0.0396,-0.0068,-0.0068,-0.0068,0,0.0376,0.0398,0.0435,0.0465,0.0474,0.0519,0.0554,0.0575,0.0626,0.0656,0.069,0.0641,0.0625,0.0461,0.0265,0.0101,-0.0032,-0.0014,-0.0079,-0.0183,-0.028,-0.033,-0.0373,-0.0076,-0.0076,-0.0076,-0.0076,0,0.0422,0.0431,0.0462,0.0521,0.0564,0.0622,0.0677,0.0731,0.076,0.0806,0.0858,0.085,0.0688,0.0526,0.0293,0.0161,-0.01,-0.0021,-0.0141,-0.029,-0.0335,-0.0406,-0.0097,-0.0077,-0.0077,-0.0077,-0.0077,-0.0077,0.0455,0.0486,0.0523,0.0582,0.0636,0.0709,0.0765,0.0835,0.0919,0.0985,0.0983,0.0994,0.0752,0.0436,0.0243,-0.0106,-0.0116,-0.0221,-0.0292,-0.0328,-0.0398,-0.0074,-0.0083,-0.0083,-0.0083,-0.0083,-0.0083,0,0.0492,0.0526,0.0583,0.065,0.0715,0.0736,0.0836,0.0898,0.0998,0.1069,0.1115,0.1022,0.0715,0.0392,-0.0067,-0.0323,-0.0427,-0.0467,-0.055,-0.058,-0.0299,-0.0319,-0.0365,-0.0365,-0.0365,-0.0365,-0.0365,-0.0365,0.0512,0.0568,0.0595,0.0699,0.0751,0.0839,0.0896,0.099,0.1065,0.1157,0.1184,0.1188,0.0966,0.0133,-0.0431,-0.0573,-0.077,-0.0812,-0.0897,-0.0728,-0.0711,-0.0695,-0.0731,-0.0863,-0.0864,-0.1147,-0.115,-0.1153]}],[{"header":{"parameterUnit":"m.s-1","parameterCategory":2,"la1":30.2991,"la2":30.254,"lo1":-89.0895,"lo2":-89.0444,"dy":0.0017,"dx":0.0017,"nx":28,"ny":28,"refTime":"2025-08-28T21:00:00:Z","depth":"2","parameterNumber":2,"parameterNumberName":"U-component_of_CURRENTS"},"data":[0,0,0,0,0,0,0,0,0,0,0,0,0,0,0,0,0,0,0,0,0,0,0,0,0,0,0,0,0,0,0,0,0,0,0,0,0,0,0,0,0,0,0,0,0,0,0,0,0,0,0,0,0,0,0,0,0,0,0.1741,0.1741,0,0.1746,0.1746,0.1746,0.1755,0.1755,0.1755,0.1756,0.1813,0.1815,0.1816,0,0,0,0,0,0,0,0,0,0,0,0,0,0.1707,0.1708,0.1741,0.1741,0.1741,0.1746,0.1746,0.1746,0.1755,0.1755,0.1755,0.1756,0.1813,0.1815,0.1816,0,0,0,0,0,0,0,0,0,0,0,0,0,0.1719,0.1709,0.1741,0.1745,0.1746,0.1746,0.1746,0.1746,0.1755,0.1755,0.1755,0.1756,0.1812,0.1814,0.1816,0.1826,0,0,0.1823,0.1824,0,0,0,0,0,0,0,0,0.1718,0.172,0.1745,0.1745,0.1746,0.1749,0.1755,0.1775,0.1755,0.1752,0.1756,0.1756,0.1796,0.18,0.18,0.1829,0.1831,0.1823,0.1824,0.1825,0.1826,0,0,0,0,0,0,0,0.1717,0.172,0.1743,0.1745,0.1745,0.1736,0.1739,0.1759,0.1775,0.1752,0.1753,0.1753,0.1797,0.1798,0.1802,0.1832,0.1823,0.1825,0.1826,0.1827,0.193,0.1931,0,0,0,0,0,0,0.1717,0.1719,0.1743,0.1743,0.1731,0.1737,0.1739,0.1748,0.1773,0.1777,0.1752,0.1753,0.1795,0.1799,0.1804,0.1868,0.1825,0.1827,0.1829,0.1929,0.193,0.1932,0,0,0,0,0,0,0.1717,0.172,0.1743,0.173,0.1732,0.1738,0.1747,0.1748,0.1757,0.1772,0.1777,0.1761,0.1795,0.1801,0.1853,0.1869,0.1828,0.183,0.1927,0.1929,0.1931,0.1963,0,0,0,0,0,0,0.1716,0.172,0.1722,0.1731,0.1733,0.176,0.1747,0.1748,0.1756,0.1757,0.1781,0.1786,0.1795,0.185,0.1855,0.1871,0.1832,0.1925,0.1928,0.193,0.1961,0.1966,0.1972,0,0,0,0,0,0.1715,0.1721,0.1723,0.1725,0.1739,0.1761,0.1763,0.1766,0.1756,0.1772,0.1798,0.1786,0.187,0.1854,0.1859,0.1875,0.1924,0.1927,0.193,0.1958,0.1965,0.1971,0,0,0,0,0,0,0.171,0.1723,0.1725,0.1736,0.1754,0.1763,0.177,0.1769,0.1798,0.1801,0.1812,0.182,0.1873,0.1873,0.1853,0.1914,0.1892,0.1896,0.1911,0.1918,0.1923,0.1925,0.1834,0,0,0,0,0,0.171,0.172,0.1735,0.1747,0.1755,0.1762,0.1768,0.1776,0.1799,0.181,0.1827,0.1851,0.1888,0.1902,0.1934,0.1966,0.1969,0.1978,0.1984,0.1988,0.1995,0.2033,0.2042,0.1943,0.1943,0.1943,0,0,0.171,0.1719,0.1724,0.1746,0.1757,0.1774,0.1768,0.1788,0.1809,0.1814,0.1851,0.1877,0.1905,0.1951,0.1971,0.1952,0.2016,0.1992,0.1996,0.2,0.2037,0.2047,0.2056,0.1945,0.1945,0.1944,0,0,0.1716,0.1728,0.1737,0.1758,0.1779,0.1787,0.1796,0.1815,0.1833,0.1876,0.1889,0.193,0.197,0.1997,0.2014,0.2067,0.2052,0.2068,0.2089,0.2126,0.2134,0.2141,0.2143,0.2151,0.2061,0.2061,0.2061,0,0.1714,0.1732,0.1745,0.1764,0.178,0.1794,0.1815,0.1837,0.1873,0.1893,0.1898,0.197,0.1994,0.2049,0.2073,0.2079,0.2086,0.2059,0.2132,0.214,0.2147,0.2147,0.2155,0.2063,0.2063,0.2063,0.2063,0,0.173,0.1747,0.1759,0.1786,0.1806,0.1833,0.1864,0.189,0.1908,0.1928,0.1992,0.2033,0.207,0.2086,0.21,0.2158,0.2141,0.2141,0.2112,0.2159,0.2156,0.2163,0.2066,0.2065,0.2065,0.2064,0,0,0.1719,0.176,0.1766,0.1779,0.1824,0.184,0.1886,0.1927,0.1952,0.1997,0.2035,0.2107,0.2117,0.2139,0.2156,0.2192,0.2247,0.2188,0.2189,0.2183,0.2308,0.2259,0.2262,0.2261,0.2263,0.2264,0.228,0,0.1728,0.1759,0.1784,0.1817,0.1834,0.1872,0.1907,0.1948,0.1991,0.2033,0.2082,0.2131,0.2139,0.2163,0.2202,0.2244,0.2271,0.2241,0.227,0.227,0.2217,0.2272,0.2111,0.2109,0.2287,0.2288,0.2289,0,0.1733,0.1754,0.1788,0.1826,0.1838,0.1862,0.1919,0.1956,0.2023,0.2062,0.2115,0.2147,0.2212,0.2213,0.2292,0.2273,0.2296,0.2321,0.2322,0.2273,0.2237,0.2096,0.2115,0.2301,0.23,0.2299,0.2298,0,0.1708,0.1754,0.1778,0.1797,0.1845,0.187,0.1897,0.196,0.2003,0.2081,0.2117,0.2184,0.2228,0.2276,0.2327,0.2315,0.2408,0.2389,0.2361,0.2356,0.2223,0.2203,0.2448,0.2448,0.2448,0.2448,0.2448,0,0.1704,0.172,0.1767,0.1782,0.1809,0.185,0.1896,0.1937,0.2011,0.2056,0.2123,0.2173,0.2254,0.231,0.234,0.2373,0.2413,0.2377,0.2369,0.2227,0.2209,0.238,0.2372,0.2449,0.2449,0.2448,0.2448,0,0.1666,0.1703,0.1725,0.1778,0.1797,0.1813,0.1888,0.1918,0.1994,0.2059,0.2086,0.2183,0.2248,0.2309,0.2391,0.2386,0.2424,0.2425,0.2238,0.2209,0.2335,0.2329,0.238,0.2379,0.2378,0.2377,0.2376,0,0.1646,0.1657,0.171,0.1724,0.1749,0.179,0.1817,0.1901,0.1942,0.2057,0.2078,0.2171,0.222,0.231,0.2331,0.2359,0.2408,0.2217,0.2172,0.2347,0.2335,0.233,0.2325,0.1996,0.1992,0.1989,0.1987,0,0.1604,0.1627,0.1645,0.1676,0.1705,0.1737,0.1785,0.1816,0.1911,0.1965,0.2034,0.2085,0.218,0.2143,0.2192,0.2189,0.2197,0.2153,0.2402,0.2044,0.1988,0.1975,0.1982,0.1959,0.1962,0.1964,0.1965,0.1966,0.1567,0.1565,0.1594,0.1613,0.1644,0.1657,0.166,0.1719,0.1762,0.1816,0.1921,0.194,0.1995,0.1981,0.1944,0.1922,0.2068,0.1981,0.199,0.2001,0.1961,0.1907,0.1852,0.1854,0.1856,0.1858,0.1859,0,0.1505,0.1512,0.1528,0.1544,0.1539,0.1584,0.1614,0.1601,0.1609,0.1688,0.1736,0.1636,0.1631,0.1678,0.1612,0.1632,0.1607,0.1561,0.1508,0.1539,0.1566,0.15,0.127,0.1268,0.1266,0.1264,0,0,0.1474,0.1458,0.1463,0.1431,0.1441,0.1411,0.1405,0.1401,0.1434,0.1422,0.1428,0.1559,0.1639,0.1419,0.1412,0.1323,0.1413,0.1278,0.1759,0.1728,0.1751,0.1828,0.1765,0,0,0,0,0]},{"header":{"parameterUnit":"m.s-1","parameterCategory":2,"la1":30.2991,"la2":30.254,"lo1":-89.0895,"lo2":-89.0444,"dy":0.0017,"dx":0.0017,"nx":28,"ny":28,"refTime":"2025-08-28T21:00:00:Z","depth":"2","parameterNumber":3,"parameterNumberName":"V-component_of_CURRENTS"},"data":[0,0,0,0,0,0,0,0,0,0,0,0,0,0,0,0,0,0,0,0,0,0,0,0,0,0,0,0,0,0,0,0,0,0,0,0,0,0,0,0,0,0,0,0,0,0,0,0,0,0,0,0,0,0,0,0,0,0,0.0019,0.0019,0,-0.0053,-0.0054,-0.0054,-0.01,-0.01,-0.01,-0.01,-0.0263,-0.0267,-0.0272,0,0,0,0,0,0,0,0,0,0,0,0,0,0.0086,0.0086,0.002,0.0019,0.0018,-0.0052,-0.0054,-0.0055,-0.01,-0.01,-0.01,-0.01,-0.0262,-0.0267,-0.0272,0,0,0,0,0,0,0,0,0,0,0,0,0,0.0039,0.0085,0.002,-0.0012,-0.0016,-0.0052,-0.0054,-0.0055,-0.01,-0.01,-0.01,-0.01,-0.026,-0.0266,-0.0273,-0.0307,0,0,-0.0292,-0.0295,0,0,0,0,0,0,0,0,0.0042,0.0037,-0.0007,-0.001,-0.0014,-0.0066,-0.009,-0.0143,-0.01,-0.0069,-0.01,-0.0101,-0.0205,-0.0216,-0.0229,-0.0315,-0.0322,-0.0292,-0.0296,-0.0299,-0.0301,0,0,0,0,0,0,0,0.0045,0.0039,-0.001,-0.0007,-0.0012,-0.0034,-0.004,-0.01,-0.0138,-0.0072,-0.0075,-0.0081,-0.0208,-0.0223,-0.0234,-0.0324,-0.0292,-0.0298,-0.0302,-0.0304,-0.0429,-0.0429,0,0,0,0,0,0,0.0058,0.0043,-0.0008,-0.0012,0.0015,-0.0034,-0.0042,-0.005,-0.0135,-0.0147,-0.0081,-0.0083,-0.0212,-0.0226,-0.024,-0.027,-0.0299,-0.0305,-0.0308,-0.043,-0.0429,-0.0429,0,0,0,0,0,0,0.006,0.0055,-0.0005,0.0015,0.0006,-0.0035,-0.0044,-0.0052,-0.0067,-0.0141,-0.0155,-0.0088,-0.0213,-0.0231,-0.0294,-0.0277,-0.0308,-0.0313,-0.043,-0.0429,-0.0429,-0.0341,0,0,0,0,0,0,0.0062,0.0056,0.0056,0.0015,0.0005,-0.0026,-0.0044,-0.0053,-0.007,-0.0073,-0.0152,-0.0167,-0.0214,-0.0284,-0.03,-0.0287,-0.0318,-0.0431,-0.043,-0.0429,-0.0345,-0.0338,-0.0331,0,0,0,0,0,0.0065,0.0065,0.0056,0.005,0.0006,-0.0026,-0.0033,-0.0064,-0.0069,-0.0077,-0.013,-0.0164,-0.0289,-0.0289,-0.0308,-0.0296,-0.0431,-0.043,-0.0429,-0.0348,-0.0339,-0.0332,0,0,0,0,0,0,0.0091,0.006,0.0049,0.0039,0.0011,-0.0033,-0.0039,-0.0059,-0.0104,-0.0108,-0.0174,-0.0194,-0.0238,-0.0282,-0.0281,-0.0328,-0.036,-0.0362,-0.0291,-0.0284,-0.0277,-0.0253,-0.0324,0,0,0,0,0,0.0099,0.0093,0.0057,0.0049,0.0039,0.0002,-0.0013,-0.0034,-0.0078,-0.0096,-0.0148,-0.0201,-0.0248,-0.0278,-0.033,-0.0367,-0.0392,-0.0367,-0.036,-0.0354,-0.0346,-0.0369,-0.0364,-0.0425,-0.0425,-0.0425,0,0,0.0107,0.009,0.0086,0.0055,0.0033,0.0025,-0.0008,-0.0028,-0.0035,-0.011,-0.0137,-0.0187,-0.0254,-0.0289,-0.0311,-0.0325,-0.0348,-0.0353,-0.0347,-0.0342,-0.0367,-0.0361,-0.0356,-0.0424,-0.0425,-0.0425,0,0,0.0124,0.0107,0.0109,0.0091,0.0063,0.0041,0.0039,-0.0001,-0.0019,-0.0058,-0.0102,-0.014,-0.0221,-0.0252,-0.0282,-0.0272,-0.0314,-0.0286,-0.0234,-0.0257,-0.0251,-0.0247,-0.0258,-0.0255,-0.028,-0.028,-0.028,0,0.0135,0.0134,0.0104,0.0102,0.0096,0.0055,0.0058,0.0033,-0.0022,-0.0031,-0.0057,-0.0141,-0.0198,-0.0226,-0.0219,-0.0255,-0.0274,-0.0258,-0.0246,-0.0243,-0.024,-0.0252,-0.025,-0.0276,-0.0276,-0.0276,-0.0277,0,0.0153,0.0153,0.0153,0.0143,0.0132,0.0125,0.0094,0.0079,0.0056,0.0032,-0.0003,-0.0075,-0.0119,-0.0137,-0.0181,-0.0182,-0.0203,-0.0235,-0.0261,-0.0228,-0.0243,-0.0243,-0.0269,-0.0271,-0.0272,-0.0273,0,0,0.0173,0.0168,0.0168,0.0177,0.0154,0.0147,0.0143,0.0128,0.0134,0.0083,0.0085,0.0015,-0.0013,-0.0047,-0.0097,-0.0116,-0.0111,-0.016,-0.0164,-0.0161,-0.015,-0.0168,-0.017,-0.0142,-0.0142,-0.0142,-0.0164,0,0.0196,0.0211,0.0201,0.0221,0.0229,0.0202,0.0202,0.0185,0.0165,0.0154,0.0099,0.0072,0.0019,0.0001,-0.0024,-0.0095,-0.0109,-0.0101,-0.0191,-0.0194,-0.0206,-0.017,-0.0149,-0.0168,-0.0164,-0.0164,-0.0164,0,0.0218,0.0228,0.0251,0.0267,0.0268,0.0273,0.028,0.0275,0.0252,0.0236,0.0212,0.0165,0.0129,0.0076,-0.0004,0.0002,-0.006,-0.0113,-0.0116,-0.0163,-0.0212,-0.0205,-0.0168,-0.0164,-0.0164,-0.0164,-0.0164,0,0.0252,0.0266,0.0291,0.0293,0.0298,0.0307,0.031,0.03,0.0312,0.0294,0.03,0.0245,0.0217,0.0137,0.003,0.0013,-0.0059,-0.0099,-0.0169,-0.0171,-0.0187,-0.0191,-0.0146,-0.0146,-0.0146,-0.0146,-0.0146,0,0.0281,0.0303,0.0309,0.0321,0.0356,0.0344,0.0381,0.0374,0.0379,0.0404,0.0347,0.0352,0.023,0.0169,0.0066,-0.0043,-0.003,-0.0148,-0.0176,-0.0156,-0.0156,-0.0187,-0.0192,-0.0147,-0.0147,-0.0147,-0.0147,0,0.0314,0.0316,0.0348,0.0363,0.0372,0.0395,0.0432,0.0459,0.0455,0.0487,0.0486,0.0437,0.0357,0.0235,0.0105,0.0009,-0.0099,-0.0143,-0.0105,-0.0128,-0.0204,-0.0204,-0.0216,-0.0217,-0.0218,-0.0218,-0.0219,0,0.0333,0.0351,0.0382,0.0407,0.0417,0.0453,0.0481,0.0493,0.053,0.0541,0.0561,0.0499,0.0463,0.0276,0.0098,-0.0067,-0.0098,-0.0161,-0.0194,-0.0184,-0.021,-0.0209,-0.0208,-0.0175,-0.0175,-0.0175,-0.0175,0,0.0371,0.0378,0.0404,0.0454,0.049,0.0539,0.0582,0.0622,0.0639,0.0665,0.0684,0.0656,0.0481,0.0318,0.009,-0.0026,-0.0133,-0.0168,-0.0163,-0.0164,-0.0148,-0.0173,-0.0173,-0.0175,-0.0175,-0.0175,-0.0175,-0.0175,0.04,0.0424,0.0457,0.0506,0.0552,0.0611,0.066,0.071,0.0767,0.0804,0.0775,0.0739,0.0552,0.0263,0.0066,-0.0141,-0.0142,-0.0215,-0.0213,-0.0212,-0.0207,-0.0193,-0.0227,-0.0227,-0.0228,-0.0228,-0.0228,0,0.0433,0.0461,0.0509,0.0566,0.062,0.0639,0.0719,0.0767,0.0836,0.0863,0.0875,0.0705,0.052,0.0305,-0.0002,-0.0189,-0.0201,-0.0244,-0.0216,-0.0214,-0.0213,-0.0207,-0.0228,-0.0229,-0.0229,-0.023,0,0,0.0451,0.0498,0.052,0.061,0.0655,0.0733,0.0781,0.0848,0.089,0.0916,0.0898,0.0851,0.0588,0.037,0.0119,-0.0055,-0.0092,-0.0089,-0.0069,-0.0005,-0.0001,-0.0177,-0.0164,0,0,0,0,0]}],[{"header":{"parameterUnit":"m.s-1","parameterCategory":2,"la1":30.2991,"la2":30.254,"lo1":-89.0895,"lo2":-89.0444,"dy":0.0017,"dx":0.0017,"nx":28,"ny":28,"refTime":"2025-08-28T21:00:00:Z","depth":"4","parameterNumber":2,"parameterNumberName":"U-component_of_CURRENTS"},"data":[0,0,0,0,0,0,0,0,0,0,0,0,0,0,0,0,0,0,0,0,0,0,0,0,0,0,0,0,0,0,0,0,0,0,0,0,0,0,0,0,0,0,0,0,0,0,0,0,0,0,0,0,0,0,0,0,0,0,0.0961,0.0961,0,0.0972,0.0972,0.0972,0.0994,0.0994,0.0995,0.0996,0.099,0.099,0.0989,0,0,0,0,0,0,0,0,0,0,0,0,0,0.0953,0.0953,0.0961,0.0961,0.0961,0.0972,0.0972,0.0972,0.0994,0.0994,0.0995,0.0996,0.0991,0.099,0.0989,0,0,0,0,0,0,0,0,0,0,0,0,0,0.0958,0.0953,0.0961,0.0975,0.0976,0.0972,0.0972,0.0972,0.0994,0.0994,0.0995,0.0996,0.0991,0.099,0.0989,0.0965,0,0,0.0986,0.0985,0,0,0,0,0,0,0,0,0.0957,0.0958,0.0972,0.0974,0.0975,0.0984,0.0968,0.097,0.0993,0.0985,0.0996,0.0997,0.0987,0.0987,0.0985,0.0965,0.0965,0.0986,0.0985,0.0985,0.0984,0,0,0,0,0,0,0,0.0957,0.0957,0.0963,0.0973,0.0974,0.0979,0.098,0.0968,0.0979,0.0986,0.0988,0.0992,0.0988,0.0985,0.0985,0.0965,0.0986,0.0985,0.0984,0.0984,0.1003,0.1004,0,0,0,0,0,0,0.0958,0.0957,0.0963,0.0964,0.097,0.0979,0.098,0.0979,0.098,0.0982,0.0991,0.0993,0.0987,0.0986,0.0984,0.1049,0.0985,0.0984,0.0983,0.1002,0.1003,0.1004,0,0,0,0,0,0,0.0958,0.0958,0.0963,0.0963,0.0964,0.0978,0.0976,0.0979,0.1004,0.0984,0.0986,0.1017,0.0987,0.0986,0.0982,0.1046,0.0983,0.0982,0.1,0.1002,0.1004,0.1119,0,0,0,0,0,0,0.0958,0.0958,0.0972,0.0962,0.0964,0.0973,0.0976,0.0978,0.1004,0.1007,0.1006,0.1005,0.0988,0.0984,0.0981,0.1043,0.0982,0.0999,0.1001,0.1003,0.1114,0.1124,0.1133,0,0,0,0,0,0.0957,0.0969,0.0972,0.0974,0.0977,0.0974,0.0975,0.0986,0.1005,0.1013,0.1008,0.1007,0.0997,0.0983,0.098,0.1043,0.0998,0.1,0.1003,0.1109,0.1122,0.1133,0,0,0,0,0,0,0.0973,0.0972,0.0975,0.0987,0.0987,0.0978,0.0995,0.1003,0.1007,0.102,0.1003,0.1001,0.1029,0.1005,0.0991,0.1052,0.1004,0.1006,0.1087,0.1098,0.1108,0.1086,0.0981,0,0,0,0,0,0.0982,0.0991,0.0985,0.0996,0.1,0.1003,0.1011,0.1018,0.1015,0.1021,0.1025,0.1027,0.1032,0.1039,0.1032,0.1053,0.103,0.1095,0.1105,0.1114,0.1092,0.111,0.1119,0.1012,0.1012,0.1012,0,0,0.0988,0.0993,0.0997,0.1002,0.1006,0.1012,0.1011,0.1029,0.1042,0.1018,0.1049,0.1058,0.1041,0.1072,0.1085,0.1065,0.1138,0.1117,0.1125,0.1097,0.1113,0.1124,0.1133,0.1014,0.1014,0.1013,0,0,0.1001,0.1014,0.1024,0.1028,0.1041,0.104,0.1052,0.1062,0.1077,0.1089,0.1095,0.1124,0.1127,0.1138,0.1139,0.1191,0.1186,0.1218,0.1258,0.1278,0.1287,0.1294,0.1307,0.1315,0.1229,0.1229,0.1229,0,0.1016,0.1023,0.1026,0.1038,0.105,0.1057,0.1071,0.1078,0.109,0.1112,0.1109,0.1153,0.1151,0.1194,0.1222,0.1217,0.1223,0.1223,0.1292,0.1299,0.1305,0.1315,0.1322,0.1235,0.1234,0.1234,0.1233,0,0.1024,0.1042,0.1051,0.1067,0.1079,0.1094,0.1101,0.1131,0.1156,0.1169,0.1222,0.122,0.125,0.1278,0.1262,0.1328,0.132,0.1304,0.1267,0.1323,0.133,0.1336,0.1243,0.1241,0.1239,0.1238,0,0,0.1023,0.1051,0.1057,0.1072,0.11,0.1106,0.1143,0.1172,0.1206,0.1237,0.1282,0.1315,0.1344,0.1343,0.1362,0.1379,0.1445,0.137,0.1368,0.1389,0.1497,0.1423,0.1421,0.1459,0.146,0.1461,0.1497,0,0.1032,0.1055,0.1072,0.1103,0.1115,0.1147,0.1176,0.1212,0.1242,0.1288,0.1318,0.136,0.1362,0.1402,0.1424,0.1439,0.1459,0.1435,0.143,0.1429,0.1363,0.1424,0.1464,0.15,0.1501,0.1502,0.1503,0,0.1031,0.105,0.1079,0.1125,0.1136,0.1162,0.1225,0.1251,0.1313,0.1343,0.1402,0.1424,0.1484,0.1458,0.151,0.1507,0.1505,0.1499,0.1501,0.1382,0.1363,0.1423,0.1511,0.151,0.151,0.1509,0.1509,0,0.1014,0.1056,0.1083,0.1097,0.1146,0.1184,0.122,0.1281,0.1318,0.1389,0.1433,0.1492,0.1535,0.1547,0.1561,0.1551,0.1588,0.1572,0.1495,0.1491,0.1495,0.1486,0.1579,0.1579,0.1579,0.1579,0.1578,0,0.1005,0.103,0.1083,0.1093,0.1141,0.1184,0.1243,0.1289,0.1363,0.1406,0.147,0.1509,0.156,0.1593,0.1585,0.1565,0.1618,0.1498,0.1494,0.1546,0.1542,0.15,0.149,0.158,0.158,0.1579,0.1579,0,0.0978,0.101,0.1044,0.1106,0.1132,0.1168,0.1255,0.129,0.1373,0.1433,0.1466,0.1551,0.1594,0.1623,0.164,0.1593,0.1575,0.1546,0.1609,0.1608,0.1457,0.1453,0.1466,0.1463,0.1461,0.146,0.1458,0,0.0964,0.0978,0.1044,0.1068,0.1102,0.1162,0.1201,0.1287,0.1323,0.1439,0.146,0.1544,0.1583,0.1556,0.1588,0.1576,0.1546,0.1528,0.1473,0.145,0.1446,0.1445,0.1443,0.1455,0.1455,0.1454,0.1454,0,0.0937,0.0969,0.0993,0.104,0.1084,0.1122,0.1186,0.1208,0.1299,0.1389,0.1423,0.1445,0.1486,0.1501,0.1508,0.1488,0.1539,0.1507,0.151,0.1458,0.1438,0.1435,0.1436,0.1447,0.1448,0.1448,0.1449,0,0.0923,0.0932,0.0967,0.1001,0.1051,0.1066,0.1103,0.1144,0.1193,0.1315,0.132,0.1398,0.1471,0.1456,0.1459,0.1447,0.1414,0.1352,0.1363,0.1371,0.1322,0.1281,0.1239,0,0,0,0,0,0.09,0.0898,0.0926,0.0948,0.0993,0.102,0.1086,0.1122,0.1208,0.1202,0.126,0.1289,0.1308,0.135,0.1315,0.1413,0.1417,0.1366,0.1351,0.1409,0.1417,0.1367,0,0,0,0,0,0,0.088,0.0903,0.0902,0.0897,0.0905,0.0942,0.0976,0.1031,0.1034,0.1128,0.1145,0.1218,0.1255,0.1318,0.1294,0.1305,0.127,0.1417,0.1414,0.1404,0.1412,0.1418,0.137,0,0,0,0,0]},{"header":{"parameterUnit":"m.s-1","parameterCategory":2,"la1":30.2991,"la2":30.254,"lo1":-89.0895,"lo2":-89.0444,"dy":0.0017,"dx":0.0017,"nx":28,"ny":28,"refTime":"2025-08-28T21:00:00:Z","depth":"4","parameterNumber":3,"parameterNumberName":"V-component_of_CURRENTS"},"data":[0,0,0,0,0,0,0,0,0,0,0,0,0,0,0,0,0,0,0,0,0,0,0,0,0,0,0,0,0,0,0,0,0,0,0,0,0,0,0,0,0,0,0,0,0,0,0,0,0,0,0,0,0,0,0,0,0,0,0.0098,0.0098,0,0.0074,0.0074,0.0073,0.0067,0.0067,0.0067,0.0067,0.0055,0.0054,0.0054,0,0,0,0,0,0,0,0,0,0,0,0,0,0.0119,0.0119,0.0098,0.0098,0.0098,0.0074,0.0074,0.0073,0.0067,0.0067,0.0067,0.0067,0.0055,0.0054,0.0054,0,0,0,0,0,0,0,0,0,0,0,0,0,0.0105,0.0119,0.0098,0.0091,0.009,0.0074,0.0074,0.0073,0.0067,0.0067,0.0067,0.0067,0.0055,0.0054,0.0054,0.0046,0,0,0.0052,0.0051,0,0,0,0,0,0,0,0,0.0105,0.0104,0.0093,0.0092,0.0091,0.0073,0.0076,0.0065,0.0067,0.0076,0.0067,0.0068,0.0062,0.006,0.0056,0.0046,0.0045,0.0052,0.0051,0.0051,0.0051,0,0,0,0,0,0,0,0.0106,0.0105,0.0089,0.0092,0.0091,0.0082,0.0081,0.0074,0.0069,0.0076,0.0075,0.0071,0.0061,0.0057,0.0056,0.0045,0.0052,0.0051,0.0051,0.005,0.0031,0.0031,0,0,0,0,0,0,0.0109,0.0106,0.009,0.0088,0.0098,0.0082,0.008,0.0079,0.0069,0.0067,0.0071,0.0071,0.0058,0.0056,0.0055,0.0049,0.0051,0.005,0.005,0.0031,0.0031,0.0031,0,0,0,0,0,0,0.011,0.0108,0.0091,0.0096,0.0093,0.0081,0.008,0.0078,0.0077,0.0065,0.0064,0.0072,0.0058,0.0056,0.0064,0.0049,0.005,0.0049,0.0031,0.0031,0.0031,0.0035,0,0,0,0,0,0,0.0111,0.0109,0.011,0.0096,0.0093,0.0087,0.008,0.0078,0.0074,0.0074,0.0066,0.0064,0.0058,0.0065,0.0063,0.0048,0.0049,0.0031,0.0031,0.0031,0.0035,0.0035,0.0035,0,0,0,0,0,0.0112,0.0112,0.0111,0.0109,0.0095,0.0087,0.0085,0.0077,0.0074,0.0076,0.0078,0.0065,0.0061,0.0065,0.0063,0.0047,0.0031,0.0031,0.0031,0.0035,0.0035,0.0035,0,0,0,0,0,0,0.012,0.011,0.0109,0.0106,0.0101,0.0086,0.0085,0.0079,0.008,0.0081,0.0073,0.0072,0.007,0.0062,0.0066,0.004,0.004,0.0039,0.0044,0.0044,0.0044,0.0055,0.0048,0,0,0,0,0,0.0123,0.0123,0.0112,0.0111,0.0109,0.0098,0.0094,0.0088,0.0085,0.0085,0.008,0.0072,0.0065,0.006,0.0055,0.0046,0.0032,0.0031,0.0031,0.0031,0.0039,0.0006,0.0004,0.003,0.003,0.003,0,0,0.0127,0.0121,0.0121,0.0114,0.0108,0.0107,0.0096,0.009,0.0091,0.0083,0.0087,0.0076,0.0066,0.0057,0.0053,0.0049,0.0016,0.0031,0.0031,0.0039,0.0006,0.0003,0.0001,0.003,0.003,0.003,0,0,0.0134,0.0129,0.0132,0.0128,0.012,0.0113,0.0113,0.0101,0.0099,0.0102,0.0092,0.0081,0.0072,0.0058,0.005,0.0047,0.0021,0.0035,0.0039,0.0007,0.0004,0.0002,-0.0023,-0.0028,0.003,0.003,0.003,0,0.0139,0.0142,0.0132,0.0134,0.0133,0.0118,0.0123,0.0117,0.011,0.0108,0.0106,0.0084,0.0072,0.0055,0.0053,0.0046,0.0027,0.004,0.0006,0.0004,0.0001,-0.0024,-0.0029,0.003,0.003,0.003,0.003,0,0.0148,0.0152,0.0153,0.0153,0.0152,0.0151,0.0142,0.0138,0.0132,0.0122,0.011,0.0094,0.008,0.0063,0.006,0.003,0.0022,0.0013,0.0006,-0.0001,-0.0027,-0.0033,0.003,0.003,0.003,0.003,0,0,0.0156,0.016,0.0161,0.017,0.0162,0.0162,0.0161,0.0156,0.0156,0.0137,0.0134,0.0108,0.0093,0.0084,0.0063,0.0031,-0.0007,0.0016,0.0014,-0.0009,-0.0077,-0.0069,-0.0074,-0.0026,-0.0027,-0.0028,-0.009,0,0.0169,0.0181,0.0178,0.0194,0.02,0.0189,0.0191,0.0182,0.0173,0.0165,0.0131,0.0124,0.0102,0.0094,0.0057,0.0015,-0.002,0.0011,-0.0066,-0.0068,-0.006,-0.008,-0.003,-0.0094,-0.0095,-0.0096,-0.0096,0,0.0181,0.0189,0.0206,0.0218,0.022,0.0226,0.0227,0.0228,0.0207,0.0198,0.0174,0.0155,0.0114,0.0096,0.0012,0.0032,-0.0019,-0.0058,-0.0061,-0.0056,-0.007,-0.0084,-0.0106,-0.0106,-0.0105,-0.0104,-0.0104,0,0.0195,0.0209,0.0226,0.0229,0.0237,0.0243,0.0247,0.0236,0.0245,0.0221,0.0222,0.0169,0.0149,0.0077,0.0004,0.0004,-0.009,-0.0103,-0.0145,-0.0145,-0.0135,-0.0132,-0.0167,-0.0167,-0.0167,-0.0166,-0.0166,0,0.0208,0.0223,0.0235,0.0245,0.0267,0.0264,0.0284,0.0277,0.0275,0.0285,0.0243,0.0237,0.0143,0.0084,0.0008,-0.0081,-0.009,-0.0144,-0.0162,-0.0132,-0.0128,-0.014,-0.0136,-0.0169,-0.0168,-0.0168,-0.0167,0,0.0221,0.0228,0.0251,0.0267,0.0276,0.0291,0.0318,0.033,0.0324,0.0335,0.0332,0.0284,0.0207,0.0112,-0.0005,-0.0067,-0.0157,-0.0188,-0.0142,-0.0157,-0.0193,-0.0189,-0.0244,-0.0245,-0.0245,-0.0245,-0.0245,0,0.0229,0.0242,0.027,0.029,0.0301,0.0326,0.0345,0.0352,0.0371,0.0365,0.0373,0.0311,0.0266,0.0112,0.0003,-0.0144,-0.0165,-0.0214,-0.021,-0.019,-0.0202,-0.0197,-0.0192,-0.0246,-0.0246,-0.0246,-0.0246,0,0.0246,0.0256,0.0276,0.0314,0.0342,0.0374,0.0404,0.0423,0.043,0.0427,0.041,0.0334,0.0246,0.0122,0.0009,-0.0098,-0.0184,-0.0217,-0.0218,-0.0215,-0.0192,-0.0203,-0.0198,-0.0247,-0.0246,-0.0246,-0.0246,0,0.0261,0.0277,0.0304,0.0338,0.0377,0.0412,0.0425,0.0445,0.0461,0.0457,0.0447,0.0353,0.0296,0.0145,0.004,-0.0062,-0.0092,-0.0129,-0.0134,-0.0135,-0.0084,-0.0039,-0.0063,0,0,0,0,0,0.0274,0.0293,0.0327,0.0365,0.0404,0.0428,0.0462,0.0471,0.0479,0.0475,0.0466,0.0386,0.0236,0.017,0.007,0.0025,-0.0117,-0.0098,-0.0164,-0.0251,-0.025,-0.0209,0,0,0,0,0,0,0.0282,0.0314,0.0328,0.0382,0.0415,0.0458,0.0482,0.0487,0.0485,0.0479,0.0404,0.0363,0.0218,0.0299,0.0071,0.0038,-0.0018,-0.0168,-0.0171,-0.0251,-0.0251,-0.025,-0.0207,0,0,0,0,0]}]]